ORBCOMM FM111 [-]

Last updated on July 6, 2021, 3:36 p.m. UTC

1 40089U 14040D   21187.22338292  .00000008  00000-0  29759-4 0  9994
2 40089  47.0065 263.1426 0036354 190.3540 169.6608 14.77436126376588
UTC
Height (km)
Latitude
Longitude
Inclination
Orbital Period
UTC large
Height (km)
Speed (km/s)
/
Latitude / Longitude
Inclination (degrees)
Orbital Period (minutes)
Azimuth
Elevation
Range (km)
Doppler Factor
iOS Compass Heading
iOS Angle